This is the latest recevied weather packets stored in our database for station/object 4S6DRJ-13. If no packets are shown the sender has not sent any weather packets the latest 10 day(s).
| Time | Temp. | Humidity | Pressure | Rain* | Wind** | Luminosity | Snow |
|---|---|---|---|---|---|---|---|
| 1788072888 | 31.67° C | 68% | 1009.7 hPa | 0 mm | 1.34 m/s, 231° | 924 W/m² | - |
| 1788072826 | 31.11° C | 68% | 1009.6 hPa | 0 mm | 2.68 m/s, 289° | 933 W/m² | - |
| 1788072765 | 31.11° C | 69% | 1009.8 hPa | 0 mm | 1.79 m/s, 235° | 1107 W/m² | - |
| 1788072704 | 31.11° C | 68% | 1009.9 hPa | 0 mm | 1.34 m/s, 185° | 1109 W/m² | - |
| 1788072643 | 31.11° C | 67% | 1009.7 hPa | 0 mm | 2.68 m/s, 166° | 1105 W/m² | - |
| 1788072583 | 31.11° C | 66% | 1009.8 hPa | 0 mm | 4.47 m/s, 247° | 835 W/m² | - |
| 1788072522 | 31.11° C | 66% | 1009.9 hPa | 0 mm | 1.79 m/s, 201° | 1102 W/m² | - |
| 1788072460 | 31.67° C | 67% | 1009.9 hPa | 0 mm | 1.34 m/s, 337° | 501 W/m² | - |
| 1788072399 | 31.67° C | 66% | 1010 hPa | 0 mm | 2.24 m/s, 245° | 1110 W/m² | - |
| 1788072338 | 31.67° C | 65% | 1010 hPa | 0 mm | 4.02 m/s, 285° | 1106 W/m² | - |
| 1788072277 | 31.67° C | 66% | 1010 hPa | 0 mm | 1.79 m/s, 215° | 1104 W/m² | - |
| 1788072217 | 31.67° C | 66% | 1009.8 hPa | 0 mm | 0.45 m/s, 222° | 1109 W/m² | - |
| 1788072155 | 31.67° C | 65% | 1009.9 hPa | 0 mm | 0.89 m/s, 40° | 1105 W/m² | - |
| 1788072094 | 31.67° C | 64% | 1009.9 hPa | 0 mm | 1.79 m/s, 18° | 1109 W/m² | - |
| 1788072033 | 31.67° C | 65% | 1009.9 hPa | 0 mm | 2.24 m/s, 208° | 1103 W/m² | - |
| 1788071973 | 31.67° C | 67% | 1010 hPa | 0 mm | 2.24 m/s, 290° | 960 W/m² | - |
| 1788071911 | 31.11° C | 68% | 1010 hPa | 0 mm | 1.79 m/s, 76° | 1106 W/m² | - |
| 1788071850 | 31.11° C | 67% | 1009.9 hPa | 0 mm | 2.24 m/s, 250° | 1109 W/m² | - |
| 1788071789 | 31.11° C | 67% | 1009.9 hPa | 0 mm | 2.24 m/s, 324° | 937 W/m² | - |
| 1788071728 | 31.11° C | 66% | 1010.2 hPa | 0 mm | 2.68 m/s, 192° | 957 W/m² | - |
| 1788071667 | 31.11° C | 67% | 1010.1 hPa | 0 mm | 1.34 m/s, 188° | 975 W/m² | - |
| 1788071605 | 31.11° C | 68% | 1010 hPa | 0 mm | 1.79 m/s, 221° | 622 W/m² | - |
| 1788071544 | 31.11° C | 68% | 1010.2 hPa | 0 mm | 1.34 m/s, 219° | 955 W/m² | - |
| 1788071484 | 31.11° C | 68% | 1010.2 hPa | 0 mm | 1.79 m/s, 80° | 912 W/m² | - |
| 1788071422 | 31.11° C | 67% | 1010.2 hPa | 0 mm | 2.24 m/s, 242° | 915 W/m² | - |
* Rain latest hour (hover to see other rain measurements)
** Current wind speed in m/s (hover to see current wind gust speed)